Time,TemperatureF,DewpointF,PressureIn,WindDirection,WindDirectionDegrees,WindSpeedMPH,WindSpeedGustMPH,Humidity,HourlyPrecipIn,Conditions,Clouds,dailyrainin,SoftwareType,DateUTC
2013-05-11 00:00:00,58.8,57.7,29.76,SW,229,0.0,0.0,96,0.04,,BKN055,0.00,VWS V14.01,2013-05-11 04:00:00,
2013-05-11 00:03:00,59.0,57.9,29.77,SW,229,0.0,0.0,96,0.01,,OVC095,0.26,VWS V14.01,2013-05-11 04:03:00,
2013-05-11 00:04:00,58.8,57.7,29.76,SW,229,0.0,0.0,96,0.04,,OVC095,0.00,VWS V14.01,2013-05-11 04:04:00,
2013-05-11 00:06:00,58.8,57.7,29.77,SW,229,0.0,0.0,96,0.05,,OVC095,0.01,VWS V14.01,2013-05-11 04:06:00,
2013-05-11 00:11:00,58.8,57.7,29.76,SW,233,0.0,0.0,96,0.05,,OVC095,0.01,VWS V14.01,2013-05-11 04:11:00,
2013-05-11 00:17:00,58.8,57.7,29.76,SW,233,0.0,0.0,96,0.06,,OVC095,0.02,VWS V14.01,2013-05-11 04:17:00,
2013-05-11 00:22:00,58.8,57.7,29.76,SW,233,0.0,0.0,96,0.06,,OVC095,0.02,VWS V14.01,2013-05-11 04:22:00,
2013-05-11 00:27:00,58.8,57.7,29.76,SW,228,1.0,2.0,96,0.06,,OVC095,0.02,VWS V14.01,2013-05-11 04:27:00,
2013-05-11 00:30:00,58.8,57.7,29.76,SW,233,1.0,2.0,96,0.07,,BKN055,0.03,VWS V14.01,2013-05-11 04:30:00,
2013-05-11 00:32:00,58.8,57.7,29.76,SW,233,1.0,2.0,96,0.07,,OVC095,0.03,VWS V14.01,2013-05-11 04:32:00,
2013-05-11 00:37:00,58.8,57.7,29.76,SW,233,0.0,1.0,96,0.06,,OVC095,0.03,VWS V14.01,2013-05-11 04:37:00,
2013-05-11 00:42:00,58.8,58.0,29.75,SW,233,0.0,1.0,97,0.06,,OVC095,0.03,VWS V14.01,2013-05-11 04:42:00,
2013-05-11 00:47:00,58.8,58.0,29.75,SW,236,0.0,1.0,97,0.07,,-RA,0.04,VWS V14.01,2013-05-11 04:47:00,
2013-05-11 00:52:00,58.8,58.0,29.75,SW,235,0.0,1.0,97,0.07,,-RA,0.04,VWS V14.01,2013-05-11 04:52:00,
2013-05-11 00:58:00,58.9,58.0,29.75,West,262,2.0,3.0,97,0.07,,-RA,0.04,VWS V14.01,2013-05-11 04:58:00,
2013-05-11 01:00:00,58.8,58.0,29.75,WSW,251,1.0,3.0,97,0.07,,BKN055,0.04,VWS V14.01,2013-05-11 05:00:00,
2013-05-11 01:03:00,58.8,58.0,29.75,WSW,251,1.0,3.0,97,0.07,,-RA,0.04,VWS V14.01,2013-05-11 05:03:00,
2013-05-11 01:08:00,58.8,58.0,29.74,WSW,250,1.0,2.0,97,0.04,,-RA,0.04,VWS V14.01,2013-05-11 05:08:00,
2013-05-11 01:13:00,58.8,58.0,29.74,West,261,1.0,3.0,97,0.04,,-RA,0.04,VWS V14.01,2013-05-11 05:13:00,
2013-05-11 01:18:00,58.8,58.0,29.74,WSW,255,1.0,3.0,97,0.04,,RA,0.04,VWS V14.01,2013-05-11 05:18:00,
2013-05-11 01:23:00,58.7,57.8,29.74,West,259,1.0,3.0,97,0.04,,RA,0.04,VWS V14.01,2013-05-11 05:23:00,
2013-05-11 01:28:00,58.7,57.8,29.74,WSW,257,1.0,3.0,97,0.05,,RA,0.05,VWS V14.01,2013-05-11 05:28:00,
2013-05-11 01:30:00,58.7,57.8,29.74,WSW,245,2.0,3.0,97,0.05,,BKN055,0.05,VWS V14.01,2013-05-11 05:30:00,
2013-05-11 01:33:00,58.7,57.8,29.74,WSW,246,2.0,2.0,97,0.02,,RA,0.05,VWS V14.01,2013-05-11 05:33:00,
2013-05-11 01:38:00,58.6,57.8,29.74,WSW,247,1.0,3.0,97,0.02,,RA,0.05,VWS V14.01,2013-05-11 05:38:00,
2013-05-11 01:43:00,58.6,57.8,29.74,SW,233,2.0,3.0,97,0.02,,RA,0.05,VWS V14.01,2013-05-11 05:43:00,
2013-05-11 01:48:00,58.6,57.8,29.74,WSW,245,1.0,3.0,97,0.02,,RA,0.05,VWS V14.01,2013-05-11 05:48:00,
2013-05-11 01:53:00,58.6,57.8,29.74,WSW,243,2.0,3.0,97,0.02,,RA,0.05,VWS V14.01,2013-05-11 05:53:00,
2013-05-11 01:59:00,58.5,57.7,29.73,West,261,1.0,3.0,97,0.02,,RA,0.05,VWS V14.01,2013-05-11 05:59:00,
2013-05-11 02:00:00,58.5,57.7,29.73,WSW,257,1.0,3.0,97,0.02,,BKN055,0.05,VWS V14.01,2013-05-11 06:00:00,
2013-05-11 02:04:00,58.5,57.7,29.73,WSW,242,2.0,2.0,97,0.01,,RA,0.05,VWS V14.01,2013-05-11 06:04:00,
2013-05-11 02:09:00,58.5,57.7,29.73,WSW,253,1.0,2.0,97,0.01,,RA,0.05,VWS V14.01,2013-05-11 06:09:00,
2013-05-11 02:14:00,58.5,57.7,29.73,West,259,1.0,2.0,97,0.01,,RA,0.05,VWS V14.01,2013-05-11 06:14:00,
2013-05-11 02:19:00,58.4,57.6,29.73,West,260,2.0,2.0,97,0.01,,RA,0.05,VWS V14.01,2013-05-11 06:19:00,
2013-05-11 02:24:00,58.4,57.6,29.73,West,262,2.0,2.0,97,0.01,,RA,0.05,VWS V14.01,2013-05-11 06:24:00,
2013-05-11 02:29:00,58.4,57.6,29.73,WSW,257,2.0,2.0,97,0.01,,RA,0.05,VWS V14.01,2013-05-11 06:29:00,
2013-05-11 02:30:00,58.4,57.6,29.73,WSW,253,2.0,2.0,97,0.01,,BKN055,0.05,VWS V14.01,2013-05-11 06:30:00,
2013-05-11 02:34:00,58.4,57.6,29.73,WSW,256,2.0,2.0,97,0.00,,RA,0.05,VWS V14.01,2013-05-11 06:34:00,
2013-05-11 02:40:00,58.5,57.7,29.73,WSW,257,1.0,3.0,97,0.00,,RA,0.05,VWS V14.01,2013-05-11 06:40:00,
2013-05-11 02:45:00,58.5,57.7,29.73,WSW,246,2.0,3.0,97,0.00,,OVC070,0.05,VWS V14.01,2013-05-11 06:45:00,
2013-05-11 02:50:00,58.4,57.6,29.72,West,260,1.0,3.0,97,0.00,,OVC070,0.05,VWS V14.01,2013-05-11 06:50:00,
2013-05-11 02:55:00,58.4,57.6,29.72,WSW,242,1.0,3.0,97,0.00,,OVC070,0.05,VWS V14.01,2013-05-11 06:55:00,
2013-05-11 03:00:00,58.4,57.6,29.72,West,266,0.0,3.0,97,0.00,,OVC070,0.05,VWS V14.01,2013-05-11 07:00:00,
2013-05-11 03:05:00,58.4,57.3,29.72,WSW,248,2.0,2.0,96,0.00,,OVC070,0.05,VWS V14.01,2013-05-11 07:05:00,
2013-05-11 03:10:00,58.4,57.3,29.72,WSW,244,1.0,2.0,96,0.00,,OVC070,0.05,VWS V14.01,2013-05-11 07:10:00,
2013-05-11 03:15:00,58.5,57.4,29.72,WSW,249,1.0,3.0,96,0.00,,OVC070,0.05,VWS V14.01,2013-05-11 07:15:00,
2013-05-11 03:20:00,58.6,57.5,29.72,WSW,245,1.0,3.0,96,0.00,,OVC070,0.05,VWS V14.01,2013-05-11 07:20:00,
2013-05-11 03:26:00,58.6,57.5,29.72,WSW,245,0.0,3.0,96,0.00,,OVC070,0.05,VWS V14.01,2013-05-11 07:26:00,
2013-05-11 03:30:00,58.6,57.5,29.71,WSW,245,0.0,3.0,96,0.00,,BKN055,0.05,VWS V14.01,2013-05-11 07:30:00,
2013-05-11 03:31:00,58.6,57.5,29.71,WSW,244,0.0,3.0,96,0.00,,OVC070,0.05,VWS V14.01,2013-05-11 07:31:00,
2013-05-11 03:36:00,58.6,57.5,29.71,WSW,245,0.0,0.0,96,0.00,,OVC070,0.05,VWS V14.01,2013-05-11 07:36:00,
2013-05-11 03:41:00,58.6,57.5,29.72,SW,225,2.0,2.0,96,0.00,,OVC070,0.05,VWS V14.01,2013-05-11 07:41:00,
2013-05-11 03:46:00,58.6,57.5,29.72,SW,225,2.0,3.0,96,0.00,,BKN055,0.05,VWS V14.01,2013-05-11 07:46:00,
2013-05-11 03:51:00,58.7,57.6,29.71,SW,226,2.0,3.0,96,0.00,,BKN055,0.05,VWS V14.01,2013-05-11 07:51:00,
2013-05-11 03:56:00,58.8,57.7,29.71,SW,228,1.0,3.0,96,0.00,,BKN055,0.05,VWS V14.01,2013-05-11 07:56:00,
2013-05-11 04:00:00,58.7,57.6,29.71,SW,225,1.0,3.0,96,0.00,,BKN055,0.05,VWS V14.01,2013-05-11 08:00:00,
2013-05-11 04:30:00,58.8,57.7,29.71,SW,225,1.0,3.0,96,0.00,,BKN055,0.05,VWS V14.01,2013-05-11 08:30:00,
2013-05-11 05:00:00,58.6,57.5,29.70,West,259,2.0,2.0,96,0.00,,BKN080,0.05,VWS V14.01,2013-05-11 09:00:00,
2013-05-11 05:04:00,58.6,57.5,29.70,WSW,253,2.0,2.0,96,0.00,,BKN055,0.05,VWS V14.01,2013-05-11 09:04:00,
2013-05-11 05:09:00,58.6,57.5,29.70,WSW,250,2.0,4.0,96,0.00,,BKN055,0.05,VWS V14.01,2013-05-11 09:09:00,
2013-05-11 05:14:00,58.5,57.4,29.70,WSW,255,2.0,4.0,96,0.00,,BKN055,0.05,VWS V14.01,2013-05-11 09:14:00,
2013-05-11 05:19:00,58.6,57.5,29.70,WSW,250,4.0,4.0,96,0.00,,BKN080,0.05,VWS V14.01,2013-05-11 09:19:00,
2013-05-11 05:24:00,58.6,57.5,29.70,WSW,257,2.0,4.0,96,0.00,,BKN080,0.05,VWS V14.01,2013-05-11 09:24:00,
2013-05-11 05:29:00,58.4,57.3,29.70,West,267,2.0,4.0,96,0.00,,BKN080,0.05,VWS V14.01,2013-05-11 09:29:00,
2013-05-11 05:30:00,58.4,57.3,29.70,West,264,2.0,4.0,96,0.00,,OVC090,0.05,VWS V14.01,2013-05-11 09:30:00,
2013-05-11 05:34:00,58.4,57.3,29.70,WSW,252,3.0,3.0,96,0.00,,BKN080,0.05,VWS V14.01,2013-05-11 09:34:00,
2013-05-11 05:39:00,58.4,57.3,29.70,West,263,3.0,4.0,96,0.00,,BKN080,0.05,VWS V14.01,2013-05-11 09:39:00,
2013-05-11 05:44:00,58.4,57.3,29.70,West,260,2.0,4.0,96,0.00,,BKN080,0.05,VWS V14.01,2013-05-11 09:44:00,
2013-05-11 05:49:00,58.5,57.4,29.71,West,264,2.0,4.0,96,0.00,,OVC110,0.05,VWS V14.01,2013-05-11 09:49:00,
2013-05-11 05:55:00,58.6,57.5,29.71,West,266,3.0,4.0,96,0.00,,OVC110,0.05,VWS V14.01,2013-05-11 09:55:00,
2013-05-11 06:00:00,58.7,57.6,29.70,WSW,251,1.0,4.0,96,0.00,,OVC110,0.05,VWS V14.01,2013-05-11 10:00:00,
2013-05-11 06:05:00,58.7,57.6,29.70,WSW,250,1.0,2.0,96,0.00,,OVC110,0.05,VWS V14.01,2013-05-11 10:05:00,
2013-05-11 06:10:00,58.7,57.6,29.70,West,262,1.0,2.0,96,0.00,,OVC110,0.05,VWS V14.01,2013-05-11 10:10:00,
2013-05-11 06:15:00,58.8,57.4,29.70,West,273,1.0,2.0,95,0.00,,OVC110,0.05,VWS V14.01,2013-05-11 10:15:00,
2013-05-11 06:20:00,58.8,57.4,29.71,West,267,1.0,2.0,95,0.00,,OVC110,0.05,VWS V14.01,2013-05-11 10:20:00,
2013-05-11 06:26:00,58.9,57.5,29.71,West,271,1.0,2.0,95,0.00,,OVC110,0.05,VWS V14.01,2013-05-11 10:26:00,
2013-05-11 06:30:00,59.0,57.6,29.71,West,271,1.0,2.0,95,0.00,,OVC090,0.05,VWS V14.01,2013-05-11 10:30:00,
2013-05-11 06:31:00,59.0,57.6,29.71,West,278,1.0,2.0,95,0.00,,OVC110,0.05,VWS V14.01,2013-05-11 10:31:00,
2013-05-11 06:36:00,59.1,57.7,29.71,West,267,1.0,2.0,95,0.00,,OVC110,0.05,VWS V14.01,2013-05-11 10:36:00,
2013-05-11 06:41:00,59.2,57.8,29.72,West,269,2.0,3.0,95,0.00,,OVC110,0.05,VWS V14.01,2013-05-11 10:41:00,
2013-05-11 06:46:00,59.2,57.8,29.73,West,262,0.0,3.0,95,0.03,,OVC110,0.08,VWS V14.01,2013-05-11 10:46:00,
2013-05-11 06:51:00,59.1,57.7,29.73,West,264,2.0,3.0,95,0.05,,OVC110,0.10,VWS V14.01,2013-05-11 10:51:00,
2013-05-11 06:56:00,59.0,57.6,29.73,West,259,1.0,3.0,95,0.06,,OVC110,0.11,VWS V14.01,2013-05-11 10:56:00,
2013-05-11 07:00:00,58.9,57.8,29.73,West,268,0.0,3.0,96,0.06,,OVC090,0.11,VWS V14.01,2013-05-11 11:00:00,
2013-05-11 07:01:00,58.9,57.8,29.73,West,269,1.0,3.0,96,0.06,,OVC110,0.11,VWS V14.01,2013-05-11 11:01:00,
2013-05-11 07:06:00,58.9,57.8,29.73,West,269,1.0,1.0,96,0.06,,OVC110,0.11,VWS V14.01,2013-05-11 11:06:00,
2013-05-11 07:12:00,58.8,57.7,29.73,West,266,0.0,1.0,96,0.07,,OVC110,0.12,VWS V14.01,2013-05-11 11:12:00,
2013-05-11 07:17:00,58.7,57.6,29.73,West,260,1.0,2.0,96,0.09,,OVC100,0.14,VWS V14.01,2013-05-11 11:17:00,
2013-05-11 07:22:00,58.6,57.5,29.73,West,278,0.0,2.0,96,0.11,,OVC100,0.16,VWS V14.01,2013-05-11 11:22:00,
2013-05-11 07:27:00,58.3,57.2,29.73,West,263,0.0,2.0,96,0.11,,OVC100,0.16,VWS V14.01,2013-05-11 11:27:00,
2013-05-11 07:30:00,58.3,57.2,29.73,West,273,1.0,2.0,96,0.12,,OVC090,0.17,VWS V14.01,2013-05-11 11:30:00,
2013-05-11 07:32:00,58.3,57.2,29.73,West,273,1.0,2.0,96,0.12,,OVC090,0.17,VWS V14.01,2013-05-11 11:32:00,
2013-05-11 07:37:00,58.1,57.0,29.73,WSW,253,1.0,2.0,96,0.12,,OVC090,0.17,VWS V14.01,2013-05-11 11:37:00,
2013-05-11 07:42:00,58.0,56.9,29.73,WNW,293,1.0,2.0,96,0.12,,OVC090,0.17,VWS V14.01,2013-05-11 11:42:00,
2013-05-11 07:59:00,57.6,56.5,29.73,NW,311,0.0,0.0,96,0.13,,OVC090,0.18,VWS V14.01,2013-05-11 11:59:00,
2013-05-11 08:00:00,57.3,55.9,29.73,West,259,0.0,5.0,95,0.13,,OVC,0.18,VWS V14.01,2013-05-11 12:00:00,
2013-05-11 08:04:00,57.2,55.8,29.73,NW,317,2.0,4.0,95,0.07,,OVC090,0.18,VWS V14.01,2013-05-11 12:04:00,
2013-05-11 08:09:00,56.8,55.4,29.73,NW,307,3.0,4.0,95,0.07,,OVC090,0.18,VWS V14.01,2013-05-11 12:09:00,
2013-05-11 08:14:00,56.5,54.8,29.73,West,281,3.0,5.0,94,0.07,,OVC090,0.18,VWS V14.01,2013-05-11 12:14:00,
2013-05-11 08:19:00,56.2,54.5,29.73,WSW,250,2.0,5.0,94,0.07,,OVC090,0.18,VWS V14.01,2013-05-11 12:19:00,
2013-05-11 08:24:00,56.1,54.1,29.73,West,274,2.0,5.0,93,0.07,,OVC090,0.18,VWS V14.01,2013-05-11 12:24:00,
2013-05-11 08:29:00,56.1,54.1,29.73,West,261,1.0,6.0,93,0.07,,OVC090,0.18,VWS V14.01,2013-05-11 12:29:00,
2013-05-11 08:30:00,56.1,54.1,29.73,West,274,3.0,6.0,93,0.07,,OVC,0.18,VWS V14.01,2013-05-11 12:30:00,
2013-05-11 08:34:00,56.0,53.7,29.73,West,278,1.0,4.0,92,0.01,,-RA,0.18,VWS V14.01,2013-05-11 12:34:00,
2013-05-11 08:39:00,55.8,53.5,29.74,West,273,5.0,8.0,92,0.01,,-RA,0.18,VWS V14.01,2013-05-11 12:39:00,
2013-05-11 08:45:00,55.7,53.4,29.74,WSW,242,3.0,8.0,92,0.01,,-RA,0.18,VWS V14.01,2013-05-11 12:45:00,
2013-05-11 08:50:00,55.7,53.4,29.74,West,281,2.0,8.0,92,0.01,,-RA,0.18,VWS V14.01,2013-05-11 12:50:00,
2013-05-11 08:55:00,55.6,53.0,29.75,WNW,285,2.0,8.0,91,0.01,,-RA,0.18,VWS V14.01,2013-05-11 12:55:00,
2013-05-11 09:00:00,55.5,52.6,29.75,West,274,3.0,8.0,90,0.01,,-RA,0.18,VWS V14.01,2013-05-11 13:00:00,
2013-05-11 09:05:00,55.7,52.8,29.75,West,276,3.0,5.0,90,0.00,,OVC090,0.18,VWS V14.01,2013-05-11 13:05:00,
2013-05-11 09:10:00,55.9,52.7,29.74,WSW,253,5.0,7.0,89,0.00,,OVC090,0.18,VWS V14.01,2013-05-11 13:10:00,
2013-05-11 09:15:00,56.1,52.6,29.74,WSW,245,3.0,7.0,88,0.00,,OVC090,0.18,VWS V14.01,2013-05-11 13:15:00,
2013-05-11 09:21:00,55.9,52.1,29.74,West,270,2.0,7.0,87,0.00,,OVC090,0.18,VWS V14.01,2013-05-11 13:21:00,
2013-05-11 09:26:00,55.6,51.8,29.75,WSW,239,2.0,7.0,87,0.00,,OVC090,0.18,VWS V14.01,2013-05-11 13:26:00,
2013-05-11 09:30:00,55.6,51.8,29.75,West,262,3.0,7.0,87,0.00,,OVC,0.18,VWS V14.01,2013-05-11 13:30:00,
2013-05-11 09:31:00,55.6,51.8,29.75,WSW,245,1.0,7.0,87,0.00,,OVC090,0.18,VWS V14.01,2013-05-11 13:31:00,
2013-05-11 09:36:00,55.4,51.3,29.75,WSW,249,2.0,6.0,86,0.00,,OVC024,0.18,VWS V14.01,2013-05-11 13:36:00,
2013-05-11 09:41:00,55.1,50.7,29.76,West,264,2.0,7.0,85,0.00,,OVC024,0.18,VWS V14.01,2013-05-11 13:41:00,
2013-05-11 09:46:00,54.9,50.8,29.75,WSW,257,2.0,8.0,86,0.00,,OVC024,0.18,VWS V14.01,2013-05-11 13:46:00,
2013-05-11 09:51:00,55.0,51.2,29.76,WSW,248,3.0,8.0,87,0.00,,OVC024,0.18,VWS V14.01,2013-05-11 13:51:00,
2013-05-11 09:56:00,55.2,50.8,29.76,West,259,3.0,8.0,85,0.00,,OVC024,0.18,VWS V14.01,2013-05-11 13:56:00,
2013-05-11 10:00:00,55.6,51.5,29.76,West,277,0.0,8.0,86,0.00,,OVC,0.18,VWS V14.01,2013-05-11 14:00:00,
2013-05-11 10:01:00,55.5,51.7,29.76,West,278,3.0,8.0,87,0.00,,OVC024,0.18,VWS V14.01,2013-05-11 14:01:00,
2013-05-11 10:06:00,55.4,51.0,29.76,West,270,2.0,7.0,85,0.00,,OVC024,0.18,VWS V14.01,2013-05-11 14:06:00,
2013-05-11 10:12:00,55.0,50.6,29.76,West,266,2.0,7.0,85,0.00,,OVC024,0.18,VWS V14.01,2013-05-11 14:12:00,
2013-05-11 10:17:00,55.0,50.9,29.76,West,267,2.0,7.0,86,0.00,,OVC024,0.18,VWS V14.01,2013-05-11 14:17:00,
2013-05-11 10:22:00,54.9,50.5,29.76,WNW,292,1.0,7.0,85,0.00,,OVC024,0.18,VWS V14.01,2013-05-11 14:22:00,
2013-05-11 10:27:00,54.9,50.2,29.76,WSW,253,3.0,7.0,84,0.00,,OVC024,0.18,VWS V14.01,2013-05-11 14:27:00,
2013-05-11 10:30:00,55.0,50.9,29.76,WSW,256,2.0,7.0,86,0.00,,OVC,0.18,VWS V14.01,2013-05-11 14:30:00,
2013-05-11 10:32:00,55.0,50.6,29.76,West,270,2.0,7.0,85,0.00,,OVC029,0.18,VWS V14.01,2013-05-11 14:32:00,
2013-05-11 10:37:00,55.3,50.9,29.75,West,264,6.0,7.0,85,0.00,,OVC029,0.18,VWS V14.01,2013-05-11 14:37:00,
2013-05-11 10:42:00,55.2,50.5,29.75,West,266,4.0,7.0,84,0.00,,OVC029,0.18,VWS V14.01,2013-05-11 14:42:00,
2013-05-11 10:47:00,55.5,51.1,29.75,WNW,290,2.0,7.0,85,0.00,,OVC029,0.18,VWS V14.01,2013-05-11 14:47:00,
2013-05-11 10:52:00,55.7,51.0,29.75,West,273,2.0,7.0,84,0.00,,OVC029,0.18,VWS V14.01,2013-05-11 14:52:00,
2013-05-11 10:58:00,56.0,50.9,29.75,WSW,252,2.0,7.0,83,0.00,,OVC029,0.18,VWS V14.01,2013-05-11 14:58:00,
2013-05-11 11:00:00,55.9,50.8,29.76,WNW,301,3.0,7.0,83,0.00,,OVC,0.18,VWS V14.01,2013-05-11 15:00:00,
2013-05-11 11:03:00,55.9,50.8,29.76,WNW,301,3.0,7.0,83,0.00,,OVC029,0.18,VWS V14.01,2013-05-11 15:03:00,
2013-05-11 11:08:00,55.8,50.7,29.76,WSW,250,4.0,8.0,83,0.00,,OVC029,0.18,VWS V14.01,2013-05-11 15:08:00,
2013-05-11 11:13:00,56.0,50.9,29.76,West,266,3.0,8.0,83,0.00,,OVC029,0.18,VWS V14.01,2013-05-11 15:13:00,
2013-05-11 11:18:00,56.3,50.9,29.76,West,260,2.0,8.0,82,0.00,,OVC029,0.18,VWS V14.01,2013-05-11 15:18:00,
2013-05-11 11:23:00,56.4,51.3,29.76,West,259,5.0,8.0,83,0.00,,OVC029,0.18,VWS V14.01,2013-05-11 15:23:00,
2013-05-11 11:28:00,56.8,51.7,29.76,WNW,299,2.0,8.0,83,0.00,,OVC029,0.18,VWS V14.01,2013-05-11 15:28:00,
2013-05-11 11:30:00,56.8,50.7,29.76,West,262,4.0,9.0,80,0.00,,OVC,0.18,VWS V14.01,2013-05-11 15:30:00,
2013-05-11 11:33:00,56.8,50.7,29.76,West,269,3.0,5.0,80,0.00,,BKN032,0.18,VWS V14.01,2013-05-11 15:33:00,
2013-05-11 11:38:00,57.0,51.6,29.75,West,267,4.0,8.0,82,0.00,,BKN032,0.18,VWS V14.01,2013-05-11 15:38:00,
2013-05-11 11:44:00,57.4,51.3,29.75,WSW,252,4.0,8.0,80,0.00,,BKN032,0.18,VWS V14.01,2013-05-11 15:44:00,
2013-05-11 11:49:00,57.6,51.1,29.76,WSW,245,3.0,8.0,79,0.00,,BKN032,0.18,VWS V14.01,2013-05-11 15:49:00,
2013-05-11 11:54:00,57.8,51.7,29.76,WSW,253,3.0,8.0,80,0.00,,BKN032,0.18,VWS V14.01,2013-05-11 15:54:00,
2013-05-11 11:59:00,57.6,50.8,29.76,WSW,243,3.0,8.0,78,0.00,,BKN032,0.18,VWS V14.01,2013-05-11 15:59:00,
2013-05-11 12:00:00,57.5,50.7,29.76,West,278,2.0,8.0,78,0.00,,OVC,0.18,VWS V14.01,2013-05-11 16:00:00,
2013-05-11 12:04:00,57.6,51.5,29.76,West,281,3.0,4.0,80,0.00,,BKN032,0.18,VWS V14.01,2013-05-11 16:04:00,
2013-05-11 12:09:00,57.9,51.8,29.76,NW,314,2.0,5.0,80,0.00,,BKN032,0.18,VWS V14.01,2013-05-11 16:09:00,
2013-05-11 12:14:00,58.0,50.5,29.76,WSW,248,3.0,6.0,76,0.00,,BKN032,0.18,VWS V14.01,2013-05-11 16:14:00,
2013-05-11 12:19:00,57.9,50.7,29.76,West,269,2.0,6.0,77,0.00,,BKN032,0.18,VWS V14.01,2013-05-11 16:19:00,
2013-05-11 12:24:00,57.8,50.7,29.76,NW,308,3.0,6.0,77,0.00,,BKN032,0.18,VWS V14.01,2013-05-11 16:24:00,
2013-05-11 12:30:00,57.9,50.7,29.76,West,273,5.0,6.0,77,0.00,,BKN032,0.18,VWS V14.01,2013-05-11 16:30:00,
2013-05-11 12:35:00,58.0,50.8,29.76,WSW,238,5.0,5.0,77,0.00,,BKN028,0.18,VWS V14.01,2013-05-11 16:35:00,
2013-05-11 12:40:00,57.7,50.5,29.76,West,271,3.0,7.0,77,0.00,,BKN028,0.18,VWS V14.01,2013-05-11 16:40:00,
2013-05-11 12:45:00,57.6,50.1,29.76,NNW,330,3.0,7.0,76,0.00,,BKN028,0.18,VWS V14.01,2013-05-11 16:45:00,
2013-05-11 12:50:00,57.6,50.5,29.76,WSW,256,1.0,7.0,77,0.00,,BKN028,0.18,VWS V14.01,2013-05-11 16:50:00,
2013-05-11 12:55:00,57.7,50.9,29.76,West,273,1.0,7.0,78,0.00,,BKN028,0.18,VWS V14.01,2013-05-11 16:55:00,
2013-05-11 13:00:00,58.4,51.9,29.75,NE,44,2.0,7.0,79,0.00,,BKN028,0.18,VWS V14.01,2013-05-11 17:00:00,
2013-05-11 13:05:00,58.5,50.6,29.75,WNW,300,2.0,7.0,75,0.00,,BKN028,0.18,VWS V14.01,2013-05-11 17:05:00,
2013-05-11 13:10:00,58.7,51.5,29.75,NW,314,2.0,7.0,77,0.00,,BKN028,0.18,VWS V14.01,2013-05-11 17:10:00,
2013-05-11 13:16:00,59.2,51.3,29.75,WSW,257,2.0,7.0,75,0.00,,BKN028,0.18,VWS V14.01,2013-05-11 17:16:00,
2013-05-11 13:21:00,59.1,50.8,29.75,WSW,255,2.0,7.0,74,0.00,,BKN028,0.18,VWS V14.01,2013-05-11 17:21:00,
2013-05-11 13:26:00,59.1,50.8,29.75,West,271,2.0,8.0,74,0.00,,BKN028,0.18,VWS V14.01,2013-05-11 17:26:00,
2013-05-11 13:30:00,59.1,51.2,29.75,WNW,298,1.0,8.0,75,0.00,,OVC,0.18,VWS V14.01,2013-05-11 17:30:00,
2013-05-11 13:31:00,59.1,51.2,29.75,WSW,250,1.0,8.0,75,0.00,,BKN028,0.18,VWS V14.01,2013-05-11 17:31:00,
2013-05-11 13:36:00,59.5,51.9,29.75,West,274,1.0,5.0,76,0.00,,FEW026,0.18,VWS V14.01,2013-05-11 17:36:00,
2013-05-11 13:41:00,60.1,51.8,29.76,WSW,254,3.0,5.0,74,0.00,,FEW026,0.18,VWS V14.01,2013-05-11 17:41:00,
2013-05-11 13:46:00,59.7,51.8,29.75,West,267,4.0,6.0,75,0.00,,FEW026,0.18,VWS V14.01,2013-05-11 17:46:00,
2013-05-11 13:51:00,60.0,52.4,29.76,SW,233,6.0,7.0,76,0.00,,FEW026,0.18,VWS V14.01,2013-05-11 17:51:00,
2013-05-11 13:56:00,60.8,54.3,29.75,WSW,255,5.0,7.0,79,0.00,,FEW026,0.18,VWS V14.01,2013-05-11 17:56:00,
2013-05-11 14:00:00,59.9,51.2,29.76,WSW,251,4.0,7.0,73,0.00,,OVC,0.18,VWS V14.01,2013-05-11 18:00:00,
2013-05-11 14:02:00,60.1,51.1,29.76,WSW,253,4.0,7.0,72,0.00,,FEW026,0.18,VWS V14.01,2013-05-11 18:02:00,
2013-05-11 14:07:00,59.6,51.3,29.76,West,274,2.0,4.0,74,0.00,,FEW026,0.18,VWS V14.01,2013-05-11 18:07:00,
2013-05-11 14:12:00,59.9,51.6,29.75,WSW,247,7.0,7.0,74,0.00,,FEW026,0.18,VWS V14.01,2013-05-11 18:12:00,
2013-05-11 14:17:00,59.5,51.2,29.75,WSW,256,4.0,7.0,74,0.00,,FEW026,0.18,VWS V14.01,2013-05-11 18:17:00,
2013-05-11 14:22:00,59.6,51.7,29.75,NW,316,3.0,7.0,75,0.00,,FEW026,0.18,VWS V14.01,2013-05-11 18:22:00,
2013-05-11 14:27:00,59.6,51.3,29.75,WNW,285,1.0,7.0,74,0.00,,FEW026,0.18,VWS V14.01,2013-05-11 18:27:00,
2013-05-11 14:30:00,59.9,52.0,29.75,WSW,256,4.0,7.0,75,0.00,,OVC,0.18,VWS V14.01,2013-05-11 18:30:00,
2013-05-11 14:32:00,59.8,51.9,29.75,West,260,4.0,7.0,75,0.00,,SCT030,0.18,VWS V14.01,2013-05-11 18:32:00,
2013-05-11 14:37:00,60.2,51.5,29.75,NW,316,2.0,5.0,73,0.00,,SCT030,0.18,VWS V14.01,2013-05-11 18:37:00,
2013-05-11 14:42:00,60.3,51.6,29.76,WSW,245,5.0,6.0,73,0.00,,SCT030,0.18,VWS V14.01,2013-05-11 18:42:00,
2013-05-11 14:48:00,60.0,51.3,29.76,WSW,245,2.0,6.0,73,0.00,,SCT030,0.18,VWS V14.01,2013-05-11 18:48:00,
2013-05-11 14:53:00,59.9,50.9,29.75,WSW,250,4.0,6.0,72,0.00,,SCT030,0.18,VWS V14.01,2013-05-11 18:53:00,
2013-05-11 14:58:00,60.0,49.8,29.75,West,272,3.0,6.0,69,0.00,,SCT030,0.18,VWS V14.01,2013-05-11 18:58:00,
2013-05-11 15:00:00,60.1,50.7,29.75,NW,323,4.0,6.0,71,0.00,,OVC,0.18,VWS V14.01,2013-05-11 19:00:00,
2013-05-11 15:03:00,60.1,50.7,29.75,SW,223,2.0,4.0,71,0.00,,SCT030,0.18,VWS V14.01,2013-05-11 19:03:00,
2013-05-11 15:08:00,60.1,50.3,29.75,WNW,300,2.0,5.0,70,0.00,,SCT030,0.18,VWS V14.01,2013-05-11 19:08:00,
2013-05-11 15:13:00,60.3,50.5,29.75,West,270,1.0,5.0,70,0.00,,SCT030,0.18,VWS V14.01,2013-05-11 19:13:00,
2013-05-11 15:18:00,60.3,49.7,29.75,WSW,247,2.0,5.0,68,0.00,,SCT030,0.18,VWS V14.01,2013-05-11 19:18:00,
2013-05-11 15:23:00,60.4,50.2,29.75,WSW,256,2.0,5.0,69,0.00,,SCT030,0.18,VWS V14.01,2013-05-11 19:23:00,
2013-05-11 15:28:00,60.6,50.8,29.75,West,271,1.0,5.0,70,0.00,,SCT030,0.18,VWS V14.01,2013-05-11 19:28:00,
2013-05-11 15:30:00,60.6,50.4,29.75,SW,235,2.0,5.0,69,0.00,,OVC,0.18,VWS V14.01,2013-05-11 19:30:00,
2013-05-11 15:33:00,60.5,49.9,29.75,NW,304,3.0,6.0,68,0.00,,OVC039,0.18,VWS V14.01,2013-05-11 19:33:00,
2013-05-11 15:39:00,60.6,50.4,29.75,West,264,3.0,7.0,69,0.00,,OVC039,0.18,VWS V14.01,2013-05-11 19:39:00,
2013-05-11 15:44:00,60.7,50.5,29.75,WSW,257,3.0,7.0,69,0.00,,OVC039,0.18,VWS V14.01,2013-05-11 19:44:00,
2013-05-11 15:49:00,60.7,51.2,29.75,SW,235,1.0,7.0,71,0.00,,OVC039,0.18,VWS V14.01,2013-05-11 19:49:00,
2013-05-11 15:54:00,60.7,52.0,29.75,West,275,2.0,7.0,73,0.00,,OVC039,0.18,VWS V14.01,2013-05-11 19:54:00,
2013-05-11 15:59:00,61.0,50.8,29.75,West,259,3.0,7.0,69,0.00,,OVC039,0.18,VWS V14.01,2013-05-11 19:59:00,
2013-05-11 16:00:00,60.9,50.7,29.75,West,270,2.0,7.0,69,0.00,,OVC,0.18,VWS V14.01,2013-05-11 20:00:00,
2013-05-11 16:04:00,60.9,50.3,29.75,WSW,250,3.0,5.0,68,0.00,,OVC039,0.18,VWS V14.01,2013-05-11 20:04:00,
2013-05-11 16:09:00,60.9,49.9,29.75,West,281,4.0,8.0,67,0.00,,OVC039,0.18,VWS V14.01,2013-05-11 20:09:00,
2013-05-11 16:14:00,60.9,50.3,29.75,WSW,245,5.0,8.0,68,0.00,,OVC039,0.18,VWS V14.01,2013-05-11 20:14:00,
2013-05-11 16:19:00,61.0,50.4,29.74,WNW,297,3.0,8.0,68,0.00,,OVC039,0.18,VWS V14.01,2013-05-11 20:19:00,
2013-05-11 16:25:00,61.2,50.6,29.75,WSW,254,2.0,8.0,68,0.00,,OVC039,0.18,VWS V14.01,2013-05-11 20:25:00,
2013-05-11 16:30:00,60.8,50.6,29.75,WSW,254,2.0,8.0,69,0.00,,OVC039,0.18,VWS V14.01,2013-05-11 20:30:00,
2013-05-11 16:35:00,60.4,50.6,29.75,WNW,292,2.0,5.0,70,0.00,,OVC039,0.18,VWS V14.01,2013-05-11 20:35:00,
2013-05-11 16:40:00,60.0,49.8,29.74,NW,321,1.0,6.0,69,0.00,,OVC039,0.18,VWS V14.01,2013-05-11 20:40:00,
2013-05-11 16:45:00,59.8,50.4,29.75,NW,308,2.0,6.0,71,0.00,,OVC060,0.18,VWS V14.01,2013-05-11 20:45:00,
2013-05-11 16:50:00,59.8,50.4,29.74,West,267,2.0,6.0,71,0.00,,OVC060,0.18,VWS V14.01,2013-05-11 20:50:00,
2013-05-11 16:55:00,59.7,49.9,29.74,West,271,1.0,6.0,70,0.00,,OVC060,0.18,VWS V14.01,2013-05-11 20:55:00,
2013-05-11 17:00:00,59.7,49.9,29.75,West,260,2.0,6.0,70,0.00,,OVC060,0.18,VWS V14.01,2013-05-11 21:00:00,
2013-05-11 17:05:00,59.6,51.0,29.74,WNW,302,1.0,3.0,73,0.00,,OVC060,0.18,VWS V14.01,2013-05-11 21:05:00,
2013-05-11 17:11:00,59.5,50.5,29.74,East,100,1.0,3.0,72,0.00,,OVC060,0.18,VWS V14.01,2013-05-11 21:11:00,
2013-05-11 17:16:00,59.4,50.0,29.74,West,264,1.0,5.0,71,0.00,,OVC060,0.18,VWS V14.01,2013-05-11 21:16:00,
2013-05-11 17:21:00,59.5,50.8,29.75,NW,304,1.0,6.0,73,0.00,,OVC060,0.18,VWS V14.01,2013-05-11 21:21:00,
2013-05-11 17:26:00,59.4,50.8,29.75,WNW,290,2.0,6.0,73,0.00,,OVC060,0.18,VWS V14.01,2013-05-11 21:26:00,
2013-05-11 17:30:00,58.9,49.9,29.75,West,267,1.0,6.0,72,0.00,,OVC,0.18,VWS V14.01,2013-05-11 21:30:00,
2013-05-11 17:31:00,59.0,50.0,29.75,WNW,300,2.0,6.0,72,0.00,,OVC060,0.18,VWS V14.01,2013-05-11 21:31:00,
2013-05-11 17:36:00,58.8,50.5,29.75,SW,231,1.0,4.0,74,0.00,,OVC050,0.18,VWS V14.01,2013-05-11 21:36:00,
2013-05-11 17:41:00,58.8,50.5,29.75,WSW,252,1.0,4.0,74,0.00,,OVC050,0.18,VWS V14.01,2013-05-11 21:41:00,
2013-05-11 17:46:00,58.7,49.3,29.75,West,268,3.0,4.0,71,0.00,,OVC050,0.18,VWS V14.01,2013-05-11 21:46:00,
2013-05-11 17:51:00,58.9,50.3,29.75,West,277,2.0,4.0,73,0.00,,OVC050,0.18,VWS V14.01,2013-05-11 21:51:00,
2013-05-11 17:56:00,58.9,49.5,29.75,WNW,293,1.0,4.0,71,0.00,,OVC050,0.18,VWS V14.01,2013-05-11 21:56:00,
2013-05-11 18:00:00,58.8,49.0,29.75,West,277,1.0,4.0,70,0.00,,OVC,0.18,VWS V14.01,2013-05-11 22:00:00,
2013-05-11 18:01:00,58.9,49.2,29.75,WSW,245,2.0,4.0,70,0.00,,OVC050,0.18,VWS V14.01,2013-05-11 22:01:00,
2013-05-11 18:07:00,58.8,49.4,29.75,WSW,248,2.0,6.0,71,0.00,,OVC050,0.18,VWS V14.01,2013-05-11 22:07:00,
2013-05-11 18:12:00,58.8,49.4,29.75,West,269,1.0,6.0,71,0.00,,OVC050,0.18,VWS V14.01,2013-05-11 22:12:00,
2013-05-11 18:17:00,58.8,49.4,29.75,West,280,1.0,6.0,71,0.00,,OVC050,0.18,VWS V14.01,2013-05-11 22:17:00,
2013-05-11 18:22:00,59.1,49.7,29.75,West,266,2.0,6.0,71,0.00,,OVC050,0.18,VWS V14.01,2013-05-11 22:22:00,
2013-05-11 18:27:00,58.7,48.6,29.75,West,261,3.0,6.0,69,0.00,,OVC050,0.18,VWS V14.01,2013-05-11 22:27:00,
2013-05-11 18:30:00,58.3,48.6,29.75,West,267,1.0,6.0,70,0.00,,OVC,0.18,VWS V14.01,2013-05-11 22:30:00,
2013-05-11 18:32:00,58.3,49.0,29.75,West,259,1.0,6.0,71,0.00,,OVC050,0.18,VWS V14.01,2013-05-11 22:32:00,
2013-05-11 18:37:00,58.0,48.7,29.75,WSW,250,0.0,2.0,71,0.00,,OVC050,0.18,VWS V14.01,2013-05-11 22:37:00,
2013-05-11 18:42:00,57.8,48.8,29.75,NNW,328,2.0,4.0,72,0.00,,OVC050,0.18,VWS V14.01,2013-05-11 22:42:00,
2013-05-11 18:47:00,57.7,49.1,29.75,West,262,0.0,4.0,73,0.00,,OVC050,0.18,VWS V14.01,2013-05-11 22:47:00,
2013-05-11 18:53:00,57.5,48.6,29.75,NNE,17,0.0,4.0,72,0.00,,OVC050,0.18,VWS V14.01,2013-05-11 22:53:00,
2013-05-11 18:58:00,57.4,48.5,29.75,NW,321,0.0,4.0,72,0.00,,OVC050,0.18,VWS V14.01,2013-05-11 22:58:00,
2013-05-11 19:00:00,57.3,48.4,29.76,North,11,1.0,4.0,72,0.00,,OVC,0.18,VWS V14.01,2013-05-11 23:00:00,
2013-05-11 19:03:00,57.3,48.4,29.76,NNE,12,0.0,1.0,72,0.00,,OVC050,0.18,VWS V14.01,2013-05-11 23:03:00,
2013-05-11 19:08:00,57.2,48.6,29.76,NW,314,1.0,3.0,73,0.00,,OVC050,0.18,VWS V14.01,2013-05-11 23:08:00,
2013-05-11 19:13:00,57.1,48.2,29.75,WNW,295,2.0,3.0,72,0.00,,OVC050,0.18,VWS V14.01,2013-05-11 23:13:00,
2013-05-11 19:18:00,57.1,48.5,29.75,NNW,340,1.0,3.0,73,0.00,,OVC050,0.18,VWS V14.01,2013-05-11 23:18:00,
2013-05-11 19:23:00,57.0,48.4,29.76,NW,314,0.0,3.0,73,0.00,,OVC050,0.18,VWS V14.01,2013-05-11 23:23:00,
2013-05-11 19:28:00,56.9,48.3,29.76,North,356,1.0,3.0,73,0.00,,OVC050,0.18,VWS V14.01,2013-05-11 23:28:00,
2013-05-11 19:30:00,56.6,48.8,29.76,WNW,297,0.0,3.0,75,0.00,,OVC,0.18,VWS V14.01,2013-05-11 23:30:00,
2013-05-11 19:33:00,56.6,48.8,29.76,NNE,12,1.0,2.0,75,0.00,,OVC050,0.18,VWS V14.01,2013-05-11 23:33:00,
2013-05-11 19:38:00,56.2,48.8,29.76,NW,307,0.0,3.0,76,0.00,,OVC050,0.18,VWS V14.01,2013-05-11 23:38:00,
2013-05-11 19:44:00,56.0,48.5,29.76,WNW,283,1.0,6.0,76,0.00,,OVC050,0.18,VWS V14.01,2013-05-11 23:44:00,
2013-05-11 19:49:00,55.9,48.8,29.77,NE,41,0.0,6.0,77,0.00,,OVC050,0.18,VWS V14.01,2013-05-11 23:49:00,
2013-05-11 19:54:00,55.8,48.7,29.76,NNW,330,1.0,6.0,77,0.00,,OVC050,0.18,VWS V14.01,2013-05-11 23:54:00,
2013-05-11 19:59:00,55.6,48.5,29.76,NNW,345,2.0,6.0,77,0.00,,OVC050,0.18,VWS V14.01,2013-05-11 23:59:00,
2013-05-11 20:00:00,55.5,48.8,29.76,NW,312,0.0,6.0,78,0.00,,OVC,0.18,VWS V14.01,2013-05-12 00:00:00,
2013-05-11 20:04:00,55.4,48.7,29.76,NW,312,0.0,1.0,78,0.00,,OVC050,0.18,VWS V14.01,2013-05-12 00:04:00,
2013-05-11 20:09:00,55.2,48.5,29.77,NW,311,3.0,4.0,78,0.00,,OVC050,0.18,VWS V14.01,2013-05-12 00:09:00,
2013-05-11 20:14:00,55.0,48.3,29.76,NW,314,0.0,5.0,78,0.00,,OVC050,0.18,VWS V14.01,2013-05-12 00:14:00,
2013-05-11 20:19:00,54.8,48.1,29.77,NNW,331,4.0,5.0,78,0.00,,OVC050,0.18,VWS V14.01,2013-05-12 00:19:00,
2013-05-11 20:24:00,54.7,48.3,29.77,NNW,338,0.0,5.0,79,0.00,,OVC050,0.18,VWS V14.01,2013-05-12 00:24:00,
2013-05-11 20:30:00,54.5,48.5,29.77,WSW,239,0.0,5.0,80,0.00,,OVC050,0.18,VWS V14.01,2013-05-12 00:30:00,
2013-05-11 20:35:00,54.4,48.4,29.77,WSW,255,0.0,0.0,80,0.00,,OVC050,0.18,VWS V14.01,2013-05-12 00:35:00,
2013-05-11 20:40:00,54.2,47.8,29.77,NW,321,0.0,1.0,79,0.00,,OVC050,0.18,VWS V14.01,2013-05-12 00:40:00,
2013-05-11 20:45:00,54.1,48.1,29.77,NW,322,0.0,1.0,80,0.00,,OVC050,0.18,VWS V14.01,2013-05-12 00:45:00,
2013-05-11 20:50:00,54.0,48.0,29.77,NW,316,1.0,2.0,80,0.00,,OVC050,0.18,VWS V14.01,2013-05-12 00:50:00,
2013-05-11 20:55:00,53.9,47.9,29.77,NNW,328,0.0,2.0,80,0.00,,OVC050,0.18,VWS V14.01,2013-05-12 00:55:00,
2013-05-11 21:00:00,53.8,48.1,29.78,NW,326,0.0,2.0,81,0.00,,OVC050,0.18,VWS V14.01,2013-05-12 01:00:00,
2013-05-11 21:05:00,53.8,48.1,29.78,WSW,242,1.0,1.0,81,0.00,,OVC050,0.18,VWS V14.01,2013-05-12 01:05:00,
2013-05-11 21:11:00,53.7,48.0,29.78,WSW,240,0.0,1.0,81,0.00,,OVC050,0.18,VWS V14.01,2013-05-12 01:11:00,
2013-05-11 21:19:00,53.6,48.6,29.78,SSW,207,0.0,1.0,83,0.00,,OVC050,0.18,VWS V14.01,2013-05-12 01:19:00,
2013-05-11 21:24:00,53.3,48.0,29.78,SSW,205,0.0,1.0,82,0.00,,OVC050,0.18,VWS V14.01,2013-05-12 01:24:00,
2013-05-11 21:29:00,53.2,48.2,29.78,WNW,298,0.0,1.0,83,0.00,,OVC050,0.18,VWS V14.01,2013-05-12 01:29:00,
2013-05-11 21:30:00,53.1,48.4,29.78,NW,322,0.0,1.0,84,0.00,,OVC,0.18,VWS V14.01,2013-05-12 01:30:00,
2013-05-11 21:34:00,53.0,48.3,29.79,NW,322,0.0,0.0,84,0.00,,OVC050,0.18,VWS V14.01,2013-05-12 01:34:00,
2013-05-11 21:39:00,52.8,48.1,29.79,NW,322,0.0,2.0,84,0.00,,OVC050,0.18,VWS V14.01,2013-05-12 01:39:00,
2013-05-11 21:44:00,52.6,47.9,29.79,NW,319,0.0,2.0,84,0.00,,OVC050,0.18,VWS V14.01,2013-05-12 01:44:00,
2013-05-11 21:49:00,52.5,47.8,29.79,NNW,329,1.0,2.0,84,0.00,,OVC050,0.18,VWS V14.01,2013-05-12 01:49:00,
2013-05-11 21:55:00,52.4,47.7,29.79,NNW,338,0.0,2.0,84,0.00,,OVC050,0.18,VWS V14.01,2013-05-12 01:55:00,
2013-05-11 22:00:00,52.3,47.6,29.79,North,4,0.0,2.0,84,0.00,,OVC050,0.18,VWS V14.01,2013-05-12 02:00:00,
2013-05-11 22:05:00,52.2,47.8,29.79,North,4,0.0,0.0,85,0.00,,OVC050,0.18,VWS V14.01,2013-05-12 02:05:00,
2013-05-11 22:10:00,52.0,47.6,29.79,NW,325,0.0,1.0,85,0.00,,OVC050,0.18,VWS V14.01,2013-05-12 02:10:00,
2013-05-11 22:15:00,51.8,47.8,29.79,NNW,346,1.0,1.0,86,0.00,,OVC050,0.18,VWS V14.01,2013-05-12 02:15:00,
2013-05-11 22:20:00,51.5,47.5,29.78,North,351,0.0,1.0,86,0.00,,OVC050,0.18,VWS V14.01,2013-05-12 02:20:00,
2013-05-11 22:25:00,51.3,47.3,29.78,NNW,340,0.0,1.0,86,0.00,,OVC050,0.18,VWS V14.01,2013-05-12 02:25:00,
2013-05-11 22:30:00,51.1,47.1,29.78,NNW,340,0.0,1.0,86,0.00,,OVC050,0.18,VWS V14.01,2013-05-12 02:30:00,
2013-05-11 22:35:00,51.0,47.3,29.78,North,349,0.0,0.0,87,0.00,,OVC055,0.18,VWS V14.01,2013-05-12 02:35:00,
2013-05-11 22:40:00,50.9,47.2,29.78,North,349,0.0,0.0,87,0.00,,OVC055,0.18,VWS V14.01,2013-05-12 02:40:00,
2013-05-11 22:46:00,50.9,47.2,29.77,North,1,0.0,0.0,87,0.00,,OVC055,0.18,VWS V14.01,2013-05-12 02:46:00,
2013-05-11 22:51:00,50.9,47.2,29.77,North,1,0.0,0.0,87,0.00,,OVC055,0.18,VWS V14.01,2013-05-12 02:51:00,
2013-05-11 22:56:00,50.8,47.1,29.77,North,1,0.0,0.0,87,0.00,,OVC055,0.18,VWS V14.01,2013-05-12 02:56:00,
2013-05-11 23:00:00,50.8,47.4,29.77,North,1,0.0,0.0,88,0.00,,OVC,0.18,VWS V14.01,2013-05-12 03:00:00,
2013-05-11 23:01:00,50.8,47.4,29.77,North,1,0.0,0.0,88,0.00,,OVC055,0.18,VWS V14.01,2013-05-12 03:01:00,
2013-05-11 23:06:00,50.6,47.2,29.77,North,1,0.0,0.0,88,0.00,,OVC055,0.18,VWS V14.01,2013-05-12 03:06:00,
2013-05-11 23:11:00,50.3,46.9,29.77,North,1,0.0,0.0,88,0.00,,OVC055,0.18,VWS V14.01,2013-05-12 03:11:00,
2013-05-11 23:16:00,49.9,46.5,29.77,North,1,0.0,0.0,88,0.00,,OVC055,0.18,VWS V14.01,2013-05-12 03:16:00,
2013-05-11 23:21:00,49.6,46.5,29.76,North,1,0.0,0.0,89,0.00,,OVC055,0.18,VWS V14.01,2013-05-12 03:21:00,
2013-05-11 23:26:00,49.4,46.3,29.76,WNW,295,0.0,1.0,89,0.00,,OVC055,0.18,VWS V14.01,2013-05-12 03:26:00,
2013-05-11 23:30:00,49.9,46.2,29.76,West,274,2.0,4.0,87,0.00,,OVC,0.18,VWS V14.01,2013-05-12 03:30:00,
2013-05-11 23:31:00,49.7,46.0,29.76,WNW,283,1.0,2.0,87,0.00,,FEW020,0.18,VWS V14.01,2013-05-12 03:31:00,
2013-05-11 23:37:00,50.4,46.1,29.76,West,264,1.0,3.0,85,0.00,,FEW020,0.18,VWS V14.01,2013-05-12 03:37:00,
2013-05-11 23:42:00,50.8,46.2,29.76,West,278,1.0,4.0,84,0.00,,FEW020,0.18,VWS V14.01,2013-05-12 03:42:00,
2013-05-11 23:47:00,51.0,46.0,29.76,WSW,243,2.0,4.0,83,0.00,,FEW020,0.18,VWS V14.01,2013-05-12 03:47:00,
2013-05-11 23:52:00,50.9,45.9,29.76,WSW,243,2.0,4.0,83,0.00,,FEW020,0.18,VWS V14.01,2013-05-12 03:52:00,
2013-05-11 23:57:00,50.8,45.8,29.76,West,259,3.0,4.0,83,0.00,,FEW020,0.18,VWS V14.01,2013-05-12 03:57:00,